Погода в Ице

Погода в Ице : погода сейчас, прогноз погоды и архив. Всё, что Вы хотите узнать о погоде в Ице!

Хотите узнать прогноз погоды в Ице? Тогда Вам сюда: Погода в Ице

Поиск расширенной информации на нашем сайте:

Другие новости

Новости СМИ2

Главная страница сайта

Новости сайта

03.07.2017

Напоминаем, что на нашем специализированном сайте Метеоцентр.Азия вы можете получить высокодетализированные автоматические прогнозы погоды по пунктам России, СНГ и мира в авиационном формате (включающие направление и скорость ветра, видимость, явления погоды, количество и форму облачности, нижнюю и верхнюю границу облачности).


Погода в Ице - сегодня

Время (UTC), дата Ветер
(°,м/с) 
Видим.   Явления Облачность Т
(°С)
Тd
(°С)
f(%) Тe
(°С)
Pmin
(гПа)
dP
(гПа)
Po
(мм)
O2
(г/м3)
Тmin Tmax R s Состояние
почвы
18 11.09.17 030 (СВ) 20000 м  {ливн. осадки}  10/10 300 м 
[St]
+8.9 +8.9 100 +7  1010.9  1.5  758  294           
00 12.09.17 020 (С) 8-12{13}  20000 м    8/8 600 м 
[Sc]
+10.6 +5.3 70 +9  1014.2  760  294           
06 12.09.17 010 (С) 9-13{15}  20000 м  {ливн. осадки}  8/4 300 м верхняя 
[St|Ci fib]
+10.5 +2.6 58 +8  1016.3  1.2  762  295           
12 12.09.17 040 (СВ) 20000 м    6/3 300 м верхняя 
[St|Ci fib]
+5.7 +2.9 82 +4  1018.9  764  301           
18 12.09.17 090 (В) 20000 м    8/4 300 м верхняя 
[St|Ci fib]
+3.2 +0.9 85 +1  1019.3  764  304           
00 13.09.17 040 (СВ) 20000 м    6/0 верхняя 
[Ci fib]
+10.2 +2.5 59 +10  1018.6  -0.5  763  296           
06 13.09.17 360 (С) 20000 м    6/3 300 м верхняя 
[St|Ci fib]
+10.4 +4.8 68 +9  1016.2  -0.9  762  295           
12 13.09.17 090 (В) 20000 м    6/3 300 м верхняя 
[St|Ci fib]
+5.5 +2.8 83 +4  1015.9  -0.4  761  300           
18 13.09.17 090 (В) 20000 м  {морось}  10/10 300 м 
[St]
+3.4 +3.4 100 +3  1014.7  -0.6  761  302           
00 14.09.17 040 (СВ) 20000 м  {ливн. осадки}  8/4 300 м верхняя 
[St|Ci fib]
+9.6 +4.5 70 +8  1014.3  -0.4  760  295           
06 14.09.17 360 (С) 9-12{13}  20000 м    8/8 300 м 
[St]
+9.1 +3.6 68 +7  1013.7  -0.2  760  296           
12 14.09.17 060 (СВ) 4{10}  20000 м    8/4 300 м верхняя 
[St|Ci fib]
+1.9 -0.1 87 1016.2  1.1  762  305           
18 14.09.17 060 (СВ) 20000 м    8/0 верхняя 
[Ci fib]
+1 -0.5 90 1017.1  0.6  762  306           
00 15.09.17 290 (З) 20000 м    6/0 верхняя 
[Ci fib]
+7 +2.3 72 +7  1018.1  0.3  763  299           
06 15.09.17 230 (ЮЗ) 20000 м    4/0 верхняя 
[Ci fib]
+9.1 +4.7 74 +9  1016.8  -0.5  762  296           
12 15.09.17 180 (Ю) 10 км  слаб. ливневой дождь  10/10 300 м кучево-дожд. 
[Cb cap]
+7 +4 81 +6  1016.8  -0.2  762  299           
18 15.09.17 170 (Ю) 7-11{12}  10 км  слаб. ливневой дождь  10/10 300 м кучево-дожд. 
[Cb cap]
+5.9 +4 88 +3  1016  761  300           
00 17.09.17 180 (Ю) 20000 м    8/6 300 м верхняя 
[St|Ci fib]
+12 +10.9 93 +13  1018.3  0.5  763  293           
06 17.09.17 200 (Ю) 20000 м    8/4 300 м верхняя 
[St|Ci fib]
+12.1 +12.1 100 +16  1019.1  0.4  764  292           
12 17.09.17 180 (Ю) 20000 м    8/4 300 м верхняя 
[St|Ci fib]
+10.3 +10.3 100 +10  1020.4  0.5  765  295           
18 17.09.17 180 (Ю) 20000 м    8/4 300 м верхняя 
[St|Ci fib]
+9.9 +9.9 100 +10  1020.7  765  296           
12 18.09.17 180 (Ю) 6-10  20000 м    8/4 300 м верхняя 
[St|Ci fib]
+10.4 +10.4 100 +10  1020  -0.2  764  295           
18 18.09.17 170 (Ю) 20000 м    8/6 300 м верхняя 
[St|Ci fib]
+9.3 +9.3 100 +8  1019  -0.7  764  296           
00 19.09.17 150 (ЮВ) 20000 м    10/10 300 м 
[St]
+11.9 +8.9 82 +12  1016  -2.4  761  292           
06 19.09.17 210 (ЮЗ) 20000 м  {морось}  10/10 300 м 
[St]
+12.1 +10.5 90 +14  1013.3  -0.7  759  291           
Время (UTC), дата Ветер
(°,м/с) 
Видим.   Явления Облачность Т
(°С)
Тd
(°С)
f(%) Тe
(°С)
Pmin
(гПа)
dP
(гПа)
Po
(мм)
O2
(г/м3)
Тmin Tmax R s Состояние
почвы

Для получения пояснительной информации подведите курсор к названию столбца.

ПОГОДА в Ице - архив

Всё, что Вы хотите узнать о погоде в Ице - удобно и подробно!

Выберите нужную дату (начиная с 1 января 2015* года) и нажмите кнопку "Найти".
Будут отображены архивные сводки погоды по пункту Ица, начиная с указанной даты.


Отображать данные в формате CSV (для использования в таблицах Excel)


Внимание! Наш архив погоды предназначен исключительно для личного некоммерческого использования в познавательных целях. Если Вам необходимы официальные справки о состоянии погоды (для производственных, юридических, коммерческих и т.п. целей), обращайтесь в органы Росгидромета.

*Примечание: данная дата относится к архиву по метеостанциям СССР (Россия, СНГ, Балтия).
Архив по метеостанциям Зарубежной Европы и Азии (кроме Китая) хранится 10 дней, по другим регионам земного шара (Китай, Африка, Америка, Австралия, Океания) - 1 день.

Ица - район местоположения метеостанции


Название, широта, долгота, высота метеостанции:
Ица 55.6°ш. 155.6°д. 6 м над ур. моря [Российская Федерация]

Дополнительная информация

В oтличие oт бoльшинства пoгoдных сайтoв мы публикуем пoдрoбную метеoинфoрмацию в детальнoм прoфессиoнальнoм фoрмате.

Характеристики температуры и влажнoсти вoздуха измеряются на высoте 2 м в тени вдали oт зданий и деревьев.
Скoрoсть ветра измеряется на высoте 10 м (на урoвне рoста челoвека скoрoсть ветра ниже в 1.5-2 раза). Если метеoстанция нахoдится в гoрoде или в лесу, тo скoрoсть ветра занижена на 2-4 м/с пo сравнению с oткрытым местoм. Скoрoсть ветра над акватoриями крупных рек и oзёр, а также на вершинах хoлмoв на 2-5 м/с выше, чем в oбычных услoвиях.
Атмoсфернoе давление в разных тoчках местнoсти мoжет значительнo oтличаться oт давления на метеoстанции, в зависимoсти oт услoвий рельефа (при пoдъёме на 10 м давление пoнижается примернo на 1 мм рт.ст.).